Weather in Zhodishki

Belarus     54°37′28″N   26°26′34″E
temp.,
°C
wind,
m/s
gust,
m/s
humid.,
%
clouds,
%
prec.,
mm/h
press.,
hPa
HPBL,
m
17 may, mon
mon1700:00+13se3993100 0.9 1007210
03:00+12se3796100 1.1 1007155
06:00+12se2797100 0.5 1006205
09:00+15sse3786100 0.6 1006473
12:00+16s2387100 1.3 1006136
15:00+15e2591100 2.3 1005176
18:00+16e1184100 0.4 1004401
21:00+13e2496100 0.8 1004143
18 may, tue
tue1800:00+12nne2497100 0.0 1003125
03:00+11nnw2498100 0.0 1003110
06:00+11n259998 0.0 1002190
09:00+14n3693100 0.1 1002485
12:00+14n3694100 0.4 1002611
15:00+13n3797100 1.5 1002439
18:00+13nnw3698100 0.6 1002369
21:00+13nnw2599100 2.3 1002264
19 may, wed
wed1900:00+12nw2499100 1.1 1002250
03:00+12nw2599100 1.3 1002293
06:00+12nw3699100 0.4 1003375
09:00+11nw4796100 0.4 1004386
12:00+11nw4896100 0.2 1005601
15:00+11nw51096100 3.4 1006606
18:00+11nw41194100 1.5 1007590
21:00+11nw31098100 2.9 1008470
20 may, thu
thu2000:00+10nw41094100 0.0 1008368
03:00+9nnw41292100 0.0 1007524
06:00+9nnw61397100 3.4 1006608
09:00+9nw71697100 15.7 1005779
12:00+9nnw91696100 14.1 1004857
15:00+9nnw81596100 22.9 10031040
18:00+9nw81695100 7.9 10031048
21:00+9nw91694100 16.3 10021262
21 may, fri
fri2100:00+9nw91794100 11.1 10021406
03:00+7wnw91895100 23.6 10041330
06:00+7w81691100 3.9 10041057
09:00+8w81587100 3.9 10061075
12:00+12w91365100 0.0 10081365
15:00+13w81055100 0.0 10101915
18:00+11wnw5967100 0.1 10111580
21:00+8wsw4107696 0.3 1012475